When you browse on this site, cookies collect data to enhance your experience and personalize the content and advertising you see.
Visit our Privacy Policy to learn more. By continuing to use the site, you agree to this use of cookies and data.

Tiempo cada hora Salamanca

Hoy, 6 Julio, Lunes

Tiempo Temperatura Precipitaciones Viento Presión Humedad
00:00 +11°C° 0 mm 1 mps 716 mmHg 74%
01:00 +11°C° 0 mm 1 mps 716 mmHg 73%
02:00 +11°C° 0 mm 1 mps 716 mmHg 71%
03:00 +10°C° 0 mm 1 mps 716 mmHg 68%
04:00 +10°C° 0 mm 1 mps 715 mmHg 66%
05:00 +10°C° 0 mm 1 mps 715 mmHg 64%
06:00 +10°C° 0 mm 1 mps 715 mmHg 62%
07:00 +10°C° 0 mm 1 mps 715 mmHg 60%
08:00 +12°C° 0 mm 1 mps 715 mmHg 58%
09:00 +13°C° 0 mm 1 mps 715 mmHg 57%
10:00 +15°C° 0 mm 1 mps 715 mmHg 55%
11:00 +15°C° 0 mm 1 mps 715 mmHg 56%
12:00 +16°C° 0 mm 1 mps 714 mmHg 57%
13:00 +16°C° 0 mm 1 mps 714 mmHg 58%
14:00 +15°C° 0 mm 1 mps 714 mmHg 63%
15:00 +15°C° 0 mm 1 mps 714 mmHg 67%
16:00 +14°C° 0 mm 1 mps 714 mmHg 72%
17:00 +13°C° 0 mm 1 mps 715 mmHg 75%
18:00 +13°C° 0 mm 1 mps 715 mmHg 79%
19:00 +12°C° 0 mm 1 mps 715 mmHg 83%
20:00 +10°C° 0 mm 0 mps 716 mmHg 85%
21:00 +10°C° 0 mm 0 mps 716 mmHg 88%
22:00 +10°C° 0 mm 0 mps 716 mmHg 90%
23:00 +9°C° 0.1 mm 0 mps 717 mmHg 90%

Mañana, 7 Julio, Martes

Tiempo Temperatura Precipitaciones Viento Presión Humedad
00:00 +9°C° 0.1 mm 0 mps 717 mmHg 89%
01:00 +9°C° 0.1 mm 0 mps 717 mmHg 89%
02:00 +9°C° 0.2 mm 0 mps 718 mmHg 87%
03:00 +9°C° 0.2 mm 1 mps 718 mmHg 85%
04:00 +9°C° 0.2 mm 1 mps 718 mmHg 83%
05:00 +9°C° 0.1 mm 1 mps 719 mmHg 83%
06:00 +9°C° 0.1 mm 1 mps 719 mmHg 83%
07:00 +9°C° 0.1 mm 1 mps 720 mmHg 83%
08:00 +10°C° 0 mm 1 mps 720 mmHg 78%
09:00 +11°C° 0 mm 1 mps 721 mmHg 73%
10:00 +13°C° 0 mm 1 mps 721 mmHg 68%
11:00 +13°C° 0 mm 1 mps 721 mmHg 67%
12:00 +13°C° 0 mm 1 mps 720 mmHg 66%
13:00 +14°C° 0 mm 2 mps 720 mmHg 65%
14:00 +13°C° 0.1 mm 1 mps 720 mmHg 68%
15:00 +13°C° 0.1 mm 1 mps 721 mmHg 70%
16:00 +13°C° 0.1 mm 1 mps 721 mmHg 72%
17:00 +12°C° 0 mm 1 mps 721 mmHg 74%
18:00 +11°C° 0 mm 1 mps 722 mmHg 76%
19:00 +11°C° 0 mm 1 mps 722 mmHg 78%
20:00 +10°C° 0 mm 1 mps 722 mmHg 75%
21:00 +10°C° 0 mm 1 mps 722 mmHg 72%
22:00 +10°C° 0 mm 1 mps 722 mmHg 69%
23:00 +10°C° 0 mm 1 mps 722 mmHg 65%

Pasado mañana, 8 Julio, Miércoles

Tiempo Temperatura Precipitaciones Viento Presión Humedad
00:00 +9°C° 0 mm 1 mps 722 mmHg 62%
01:00 +9°C° 0 mm 1 mps 722 mmHg 59%
02:00 +8°C° 0 mm 2 mps 722 mmHg 57%
03:00 +8°C° 0 mm 2 mps 722 mmHg 56%
04:00 +8°C° 0 mm 2 mps 722 mmHg 54%
05:00 +8°C° 0 mm 2 mps 722 mmHg 53%
06:00 +8°C° 0 mm 2 mps 722 mmHg 52%
07:00 +8°C° 0 mm 2 mps 722 mmHg 51%
08:00 +11°C° 0 mm 1 mps 722 mmHg 45%
09:00 +14°C° 0 mm 1 mps 722 mmHg 40%
10:00 +16°C° 0 mm 1 mps 721 mmHg 34%
11:00 +16°C° 0 mm 1 mps 721 mmHg 35%
12:00 +18°C° 0 mm 1 mps 720 mmHg 36%
13:00 +19°C° 0 mm 1 mps 720 mmHg 37%
14:00 +18°C° 0 mm 1 mps 720 mmHg 41%
15:00 +18°C° 0 mm 1 mps 720 mmHg 44%
16:00 +16°C° 0 mm 1 mps 720 mmHg 47%
17:00 +15°C° 0 mm 1 mps 720 mmHg 50%
18:00 +14°C° 0 mm 1 mps 720 mmHg 53%
19:00 +12°C° 0 mm 1 mps 721 mmHg 55%
20:00 +12°C° 0 mm 1 mps 720 mmHg 53%
21:00 +12°C° 0 mm 1 mps 720 mmHg 50%
22:00 +12°C° 0 mm 1 mps 720 mmHg 47%
23:00 +12°C° 0 mm 1 mps 720 mmHg 46%

9 Julio, Jueves

Tiempo Temperatura Precipitaciones Viento Presión Humedad
00:00 +12°C° 0 mm 2 mps 720 mmHg 45%
01:00 +12°C° 0 mm 2 mps 720 mmHg 43%
02:00 +12°C° 0 mm 1 mps 719 mmHg 42%
03:00 +12°C° 0 mm 1 mps 719 mmHg 40%
04:00 +12°C° 0 mm 1 mps 719 mmHg 39%
05:00 +12°C° 0 mm 1 mps 719 mmHg 39%
06:00 +12°C° 0 mm 1 mps 719 mmHg 39%
07:00 +12°C° 0 mm 1 mps 719 mmHg 39%
08:00 +14°C° 0 mm 1 mps 719 mmHg 37%
09:00 +16°C° 0 mm 1 mps 719 mmHg 36%
10:00 +19°C° 0 mm 1 mps 720 mmHg 34%
11:00 +20°C° 0 mm 1 mps 719 mmHg 35%
12:00 +21°C° 0 mm 1 mps 719 mmHg 36%
13:00 +21°C° 0 mm 1 mps 719 mmHg 37%
14:00 +21°C° 0 mm 1 mps 719 mmHg 41%
15:00 +20°C° 0 mm 1 mps 719 mmHg 46%
16:00 +19°C° 0 mm 1 mps 719 mmHg 50%
17:00 +18°C° 0 mm 1 mps 718 mmHg 50%
18:00 +16°C° 0 mm 1 mps 718 mmHg 50%
19:00 +15°C° 0 mm 1 mps 718 mmHg 51%
20:00 +14°C° 0 mm 1 mps 718 mmHg 47%
21:00 +14°C° 0 mm 2 mps 718 mmHg 44%
22:00 +14°C° 0 mm 2 mps 718 mmHg 41%
23:00 +14°C° 0 mm 2 mps 718 mmHg 39%

10 Julio, Viernes

Tiempo Temperatura Precipitaciones Viento Presión Humedad
00:00 +14°C° 0 mm 2 mps 718 mmHg 38%
01:00 +14°C° 0 mm 1 mps 718 mmHg 36%
02:00 +14°C° 0 mm 2 mps 718 mmHg 34%
03:00 +14°C° 0 mm 2 mps 718 mmHg 32%
04:00 +14°C° 0 mm 2 mps 718 mmHg 30%
05:00 +13°C° 0 mm 2 mps 718 mmHg 29%
06:00 +13°C° 0 mm 2 mps 718 mmHg 29%
07:00 +13°C° 0 mm 2 mps 718 mmHg 28%
08:00 +16°C° 0 mm 1 mps 719 mmHg 28%
09:00 +20°C° 0 mm 1 mps 719 mmHg 28%
10:00 +23°C° 0 mm 1 mps 719 mmHg 28%
11:00 +23°C° 0 mm 1 mps 719 mmHg 30%
12:00 +23°C° 0 mm 1 mps 719 mmHg 32%
13:00 +24°C° 0 mm 1 mps 718 mmHg 34%
14:00 +23°C° 0 mm 1 mps 718 mmHg 38%
15:00 +22°C° 0 mm 1 mps 718 mmHg 42%
16:00 +21°C° 0 mm 1 mps 718 mmHg 46%
17:00 +20°C° 0 mm 1 mps 718 mmHg 45%
18:00 +18°C° 0 mm 1 mps 718 mmHg 44%
19:00 +16°C° 0 mm 1 mps 718 mmHg 42%
20:00 +16°C° 0 mm 1 mps 718 mmHg 40%
21:00 +16°C° 0 mm 2 mps 718 mmHg 38%
22:00 +16°C° 0 mm 2 mps 718 mmHg 36%
23:00 +15°C° 0 mm 2 mps 718 mmHg 34%

11 Julio, Sábado

Tiempo Temperatura Precipitaciones Viento Presión Humedad
00:00 +15°C° 0 mm 2 mps 718 mmHg 32%
01:00 +15°C° 0 mm 2 mps 718 mmHg 30%
02:00 +15°C° 0 mm 2 mps 717 mmHg 29%
03:00 +15°C° 0 mm 2 mps 717 mmHg 28%
04:00 +15°C° 0 mm 2 mps 717 mmHg 27%
05:00 +15°C° 0 mm 2 mps 717 mmHg 26%
06:00 +14°C° 0 mm 2 mps 717 mmHg 25%
07:00 +14°C° 0 mm 2 mps 717 mmHg 24%
08:00 +17°C° 0 mm 2 mps 718 mmHg 24%
09:00 +21°C° 0 mm 1 mps 718 mmHg 24%
10:00 +24°C° 0 mm 1 mps 718 mmHg 24%
11:00 +24°C° 0 mm 1 mps 718 mmHg 25%
12:00 +25°C° 0 mm 1 mps 718 mmHg 26%
13:00 +25°C° 0 mm 1 mps 717 mmHg 27%
14:00 +24°C° 0 mm 1 mps 717 mmHg 33%
15:00 +23°C° 0 mm 1 mps 717 mmHg 39%
16:00 +22°C° 0 mm 1 mps 717 mmHg 45%
17:00 +21°C° 0 mm 1 mps 717 mmHg 43%
18:00 +18°C° 0 mm 2 mps 717 mmHg 41%
19:00 +17°C° 0 mm 2 mps 717 mmHg 39%
20:00 +17°C° 0 mm 2 mps 717 mmHg 37%
21:00 +17°C° 0 mm 2 mps 717 mmHg 36%
22:00 +16°C° 0 mm 2 mps 717 mmHg 34%
23:00 +16°C° 0 mm 2 mps 717 mmHg 32%
Mostrar más